Tracking 23610 objects as of 19-Sep-2021
HD Live streaming from Space Station
objects crossing your sky now

MOLNIYA 3-8

Track MOLNIYA 3-8 now!
MOLNIYA 3-8 is classified as:


NORAD ID: 10455
Int'l Code: 1977-105A
Perigee: 562.3 km
Apogee: 39,808.2 km
Inclination: 62.9 °
Period: 717.8 minutes
Semi major axis: 26556 km
RCS: 13.5006 m2 (large)
Launch date: October 28, 1977
Source: Commonwealth of Independent States (former USSR) (CIS)
Launch site: PLESETSK MISSILE AND SPACE COMPLEX (PKMTR)
aabbcc
Your satellite tracking list
Your tracking list is empty




NASA's NSSDC Master Catalog

Two Line Element Set (TLE):
1 10455U 77105A   21261.35776142 -.00001366  00000-0  10204-2 0  9998
2 10455  62.8820  40.5545 7389216 280.5446  11.1090  2.00610577321681
Source of the keplerian elements: AFSPC